sat.trackr.live / text

‹ back to catalog

STARLINK-11494 [DTC]

NORAD 62272 · 2024-237F

PAYLOAD ACTIVE UNKNOWN

§ Identity

Operator
Country
US
Launch date
2024-12-08
Launch site
AFETR
Launch vehicle
Mass (kg)
RCS (m²)

Purposes: comms

External: N2YO · Heavens-Above · Gunter

§ Orbital elements

Epoch: 2026-09-21T07:10:38.593056Z

Period
91.67 min
Inclination
42.9966°
Eccentricity
0.0002063
Mean motion
15.70833576 rev/d
Perigee alt
355.1 km
Apogee alt
357.9 km
Semi-major
6,734.7 km
B*
8.9502e-4
RAAN
317.7968°
Arg perigee
168.3548°
Mean anomaly
191.7368°
Rev number
10,376

§ Raw data

STARLINK-11494 [DTC]1 62272U 24237F   26264.29905779  .00115982  00000+0  89502-3 0  99972 62272  42.9966 317.7968 0002063 168.3548 191.7368 15.70833576103761

JSON: /api/v1/satellites/62272 · /tle

For live sub-satellite position, see the globe view (requires WebGL).

§ Visibility from observer

Set your observer location to see the next 7 days of passes ≥ 10°. The values pass through the URL so the page stays shareable.

No JS? Fill the form by hand. The geolocation button needs JavaScript.